FW4407 Weather Reports


Display with metric or nautical units.
time (UTC)temp
F
wind
direction
speed
MPH
gust
MPH
rain 1hr
in
rain 24hr
in
rain mn
in
humidity
%
barometer
mb
20260507094025 78 240 2.0 8.0 0.00 0.00 0.00 41 1017.2
20260507093030 78 243 2.0 8.0 0.00 0.00 0.00 40 1017.3
20260507092018 78 322 2.0 8.0 0.00 0.00 0.00 41 1017.2
20260507091023 77 297 1.0 8.0 0.00 0.00 0.00 40 1017.3
20260507090047 77 181 1.0 8.0 0.00 0.00 0.00 41 1017.2
20260507085015 77 257 1.0 5.0 0.00 0.00 0.00 41 1017.2
20260507084021 77 273 0.0 2.0 0.00 0.00 0.00 40 1017.3
20260507083026 76 273 0.0 2.0 0.00 0.00 0.00 40 1017.3
20260507082051 76 236 1.0 5.0 0.00 0.00 0.00 41 1017.3
20260507081039 75 232 2.0 8.0 0.00 0.00 0.00 43 1017.3
20260507080024 75 273 0.0 5.0 0.00 0.00 0.00 42 1017.4
20260507075028 75 266 1.0 5.0 0.00 0.00 0.00 44 1017.3
20260507074017 75 227 1.0 2.0 0.00 0.00 0.00 45 1017.1
20260507073530 75 0.0 0.0 0.00 0.00 0.00 45 1016.9
20260507072519 75 0.0 0.0 0.00 0.00 0.00 44 1016.9
20260507071523 74 230 1.0 5.0 0.00 0.00 0.00 45 1017.0
20260507070549 74 222 0.0 2.0 0.00 0.00 0.00 45 1017.2
20260507065516 73 235 1.0 5.0 0.00 0.00 0.00 46 1017.2
20260507064522 74 251 2.0 8.0 0.00 0.00 0.00 46 1017.0
20260507063526 73 0.0 0.0 0.00 0.00 0.00 47 1016.9
20260507062531 72 254 1.0 5.0 0.00 0.00 0.00 46 1016.9
20260507061519 71 0.0 0.0 0.00 0.00 0.00 44 1016.9
20260507060524 69 0.0 0.0 0.00 0.00 0.00 47 1016.8
20260507055529 68 0.0 0.0 0.00 0.00 0.00 50 1016.5
20260507054518 68 0.0 0.0 0.00 0.00 0.00 52 1016.5
20260507053523 68 8 0.0 2.0 0.00 0.00 0.00 51 1016.2
20260507052527 67 0.0 0.0 0.00 0.00 0.00 52 1016.2
20260507051516 65 116 0.0 2.0 0.00 0.00 0.00 53 1016.1
20260507050521 63 150 0.0 2.0 0.00 0.00 0.00 54 1016.2
20260507045547 62 0.0 0.0 0.00 0.00 0.00 57 1016.3
20260507044530 62 16 1.0 5.0 0.00 0.00 0.00 59 1016.1
20260507043518 61 0.0 0.0 0.00 0.00 0.00 58 1016.1
20260507042523 60 0.0 0.0 0.00 0.00 0.00 58 1016.1
20260507041528 59 0.0 0.0 0.00 0.00 0.00 61 1016.1
20260507040516 58 0.0 0.0 0.00 0.00 0.00 62 1016.2
20260507035522 58 0.0 0.0 0.00 0.00 0.00 64 1016.2
20260507034526 58 0.0 0.0 0.00 0.00 0.00 65 1016.2
20260507033551 58 0.0 0.0 0.00 0.00 0.00 66 1016.1
20260507032520 58 0.0 0.0 0.00 0.00 0.00 67 1016.1
20260507031525 58 0.0 0.0 0.00 0.00 0.00 67 1016.0
20260507030529 58 0.0 0.0 0.00 0.00 0.00 67 1016.0
20260507025517 58 0.0 0.0 0.00 0.00 0.00 67 1015.8
20260507024523 58 0.0 0.0 0.00 0.00 0.00 67 1015.9
20260507023547 58 0.0 0.0 0.00 0.00 0.00 66 1016.1
20260507022515 57 0.0 0.0 0.00 0.00 0.00 66 1015.8
20260507021520 57 0.0 0.0 0.00 0.00 0.00 66 1015.8
20260507020525 57 0.0 0.0 0.00 0.00 0.00 66 1015.7
20260507015531 58 0.0 0.0 0.00 0.00 0.00 66 1015.7
20260507014518 58 0.0 0.0 0.00 0.00 0.00 66 1015.7
20260507013523 59 0.0 0.0 0.00 0.00 0.00 65 1015.6
20260507012529 59 0.0 0.0 0.00 0.00 0.00 64 1015.4
20260507011516 59 0.0 0.0 0.00 0.00 0.00 64 1015.2
20260507010522 59 0.0 0.0 0.00 0.00 0.00 65 1015.2
20260507005526 59 0.0 0.0 0.00 0.00 0.00 65 1015.2
20260507004531 59 0.0 0.0 0.00 0.00 0.00 65 1015.2
20260507003519 60 0.0 0.0 0.00 0.00 0.00 64 1015.2
20260507002524 60 0.0 0.0 0.00 0.00 0.00 64 1015.1
20260507001550 60 0.0 0.0 0.00 0.00 0.00 63 1015.2
20260507000517 60 0.0 0.0 0.00 0.00 0.00 63 1015.2
20260506235522 60 0.0 0.0 0.00 0.00 0.00 62 1015.3
20260506234527 61 0.0 0.0 0.00 0.00 0.00 61 1015.6
20260506233515 61 0.0 0.0 0.00 0.00 0.00 61 1015.6
20260506232520 61 0.0 0.0 0.00 0.00 0.00 61 1015.9
20260506231525 61 0.0 0.0 0.00 0.00 0.00 61 1015.9
20260506230531 61 0.0 0.0 0.00 0.00 0.00 61 1015.9
20260506225538 62 0.0 0.0 0.00 0.00 0.00 61 1015.9
20260506224523 62 0.0 0.0 0.00 0.00 0.00 60 1015.9
20260506223528 62 0.0 0.0 0.00 0.00 0.00 60 1015.9
20260506222515 62 0.0 0.0 0.00 0.00 0.00 59 1015.9
20260506221521 63 0.0 0.0 0.00 0.00 0.00 60 1016.0
20260506220526 63 0.0 0.0 0.00 0.00 0.00 59 1016.0
20260506215526 64 0.0 0.0 0.00 0.00 0.00 58 1016.0
20260506214531 64 0.0 0.0 0.00 0.00 0.00 55 1016.1
20260506213519 64 0.0 0.0 0.00 0.00 0.00 53 1016.2
20260506212524 64 0.0 0.0 0.00 0.00 0.00 52 1016.3
20260506211529 64 0.0 0.0 0.00 0.00 0.00 51 1016.3
20260506210517 64 0.0 0.0 0.00 0.00 0.00 52 1016.3
20260506205522 64 0.0 0.0 0.00 0.00 0.00 52 1016.5
20260506204527 64 0.0 0.0 0.00 0.00 0.00 51 1016.5
20260506203515 65 0.0 0.0 0.00 0.00 0.00 50 1016.5
20260506202520 65 0.0 0.0 0.00 0.00 0.00 49 1016.5
20260506201525 66 0.0 0.0 0.00 0.00 0.00 49 1016.5
20260506200530 66 0.0 0.0 0.00 0.00 0.00 47 1016.2
20260506195518 67 0.0 0.0 0.00 0.00 0.00 47 1016.2
20260506194523 67 0.0 0.0 0.00 0.00 0.00 46 1016.2
20260506193528 67 0.0 0.0 0.00 0.00 0.00 46 1016.0
20260506192515 67 0.0 0.0 0.00 0.00 0.00 45 1015.9
20260506191521 67 0.0 0.0 0.00 0.00 0.00 45 1015.9
20260506190526 68 0.0 0.0 0.00 0.00 0.00 44 1015.8
20260506185531 68 0.0 0.0 0.00 0.00 0.00 43 1015.6
20260506184534 68 0.0 0.0 0.00 0.00 0.00 43 1015.7
20260506183525 68 0.0 0.0 0.00 0.00 0.00 44 1015.6
20260506182529 68 0.0 0.0 0.00 0.00 0.00 44 1015.4
20260506181517 68 0.0 0.0 0.00 0.00 0.00 45 1015.3
20260506180542 68 0.0 0.0 0.00 0.00 0.00 45 1015.1
20260506175527 69 1 1.0 5.0 0.00 0.00 0.00 45 1015.1
20260506174515 69 0.0 0.0 0.00 0.00 0.00 45 1015.1
20260506173520 70 329 0.0 5.0 0.00 0.00 0.00 45 1015.0
20260506172525 70 0.0 0.0 0.00 0.00 0.00 44 1015.0
20260506171530 71 314 0.0 2.0 0.00 0.00 0.00 43 1014.9
20260506170518 72 193 0.0 2.0 0.00 0.00 0.00 41 1014.9
20260506165523 73 0.0 0.0 0.00 0.00 0.00 41 1014.8
20260506164528 74 317 0.0 5.0 0.00 0.00 0.00 39 1014.8
20260506163516 75 257 1.0 5.0 0.00 0.00 0.00 37 1014.8
20260506162541 75 254 1.0 8.0 0.00 0.00 0.00 37 1014.7
20260506161526 76 265 0.0 5.0 0.00 0.00 0.00 35 1014.7
20260506160531 76 284 1.0 8.0 0.00 0.00 0.00 35 1014.7
20260506155519 76 306 0.0 5.0 0.00 0.00 0.00 35 1014.7
20260506154524 77 310 1.0 8.0 0.00 0.00 0.00 35 1014.8
20260506153529 77 265 1.0 8.0 0.00 0.00 0.00 34 1014.9
20260506152517 77 252 1.0 10.0 0.00 0.00 0.00 34 1015.1
20260506151522 77 225 1.0 10.0 0.00 0.00 0.00 34 1015.0
20260506150547 78 242 2.0 8.0 0.00 0.00 0.00 34 1015.0
20260506145552 78 289 2.0 10.0 0.00 0.00 0.00 35 1015.0
20260506144540 78 262 2.0 8.0 0.00 0.00 0.00 35 1015.1
20260506143525 78 277 2.0 8.0 0.00 0.00 0.00 36 1015.1
20260506142530 78 297 1.0 8.0 0.00 0.00 0.00 36 1015.1
20260506141518 78 41 1.0 8.0 0.00 0.00 0.00 36 1015.1
20260506140523 79 251 3.0 10.0 0.00 0.00 0.00 36 1015.1
20260506135528 79 233 2.0 8.0 0.00 0.00 0.00 36 1015.1
20260506134516 79 228 2.0 8.0 0.00 0.00 0.00 36 1015.1
20260506133521 79 265 1.0 5.0 0.00 0.00 0.00 36 1015.1
20260506132526 79 237 2.0 8.0 0.00 0.00 0.00 36 1015.1
20260506131551 79 249 1.0 8.0 0.00 0.00 0.00 33 1015.1
20260506130519 79 282 1.0 8.0 0.00 0.00 0.00 33 1015.1
20260506125524 79 261 2.0 8.0 0.00 0.00 0.00 35 1015.1
20260506124529 79 280 1.0 8.0 0.00 0.00 0.00 35 1015.2
20260506123517 79 232 3.0 10.0 0.00 0.00 0.00 35 1015.3
20260506122542 79 257 4.0 10.0 0.00 0.00 0.00 36 1015.2
20260506121527 79 231 3.0 10.0 0.00 0.00 0.00 34 1015.2
20260506120515 79 242 1.0 5.0 0.00 0.00 0.00 35 1015.5
20260506115520 79 249 2.0 8.0 0.00 0.00 0.00 37 1015.5
20260506114525 79 242 3.0 13.0 0.00 0.00 0.00 35 1015.5
20260506113530 79 229 2.0 5.0 0.00 0.00 0.00 36 1015.6
20260506112518 79 236 3.0 10.0 0.00 0.00 0.00 36 1015.6
20260506111523 79 236 3.0 10.0 0.00 0.00 0.00 36 1015.5
20260506110528 79 222 2.0 8.0 0.00 0.00 0.00 36 1015.6
20260506105515 79 235 2.0 8.0 0.00 0.00 0.00 35 1015.5
20260506104521 79 267 1.0 8.0 0.00 0.00 0.00 36 1015.6
20260506103526 79 247 1.0 5.0 0.00 0.00 0.00 36 1015.6
20260506102530 79 274 1.0 8.0 0.00 0.00 0.00 37 1015.6
20260506101519 79 245 2.0 5.0 0.00 0.00 0.00 37 1015.7
20260506100524 80 231 3.0 8.0 0.00 0.00 0.00 38 1015.6
20260506095529 80 230 1.0 8.0 0.00 0.00 0.00 37 1015.9